Station Historical Data
Daily Summary for May 7, 2017 Units:  Metric    English   Both
« Previous Day
Next Day »
Daily Weekly Monthly Yearly Custom
  High: Low: Average:
Temperature: 11.2 °C 3.7 °C 6.5 °C
Dew Point: 5 °C -0.2 °C 2.2 °C
Humidity: 93% 56% 75%
Wind Speed: 19.3km/h 0km/h 7.4km/h
Wind Gust: 32.2km/h - -
Wind- - WNW
Pressure: 1012.1 hPa 999.5 hPa -
Precipitation: 0 mm    
Historical Graphs
 
 
Tabular Data for May 7, 2017
Time Temperature Dew Point Pressure Wind Wind Speed Wind Gust Humidity Rainfall Rate (Hourly)
00:04 4.6 °C 3.6 °C 999.5 hPa WNW 4.8 km/h 14.5 km/h 93% 0.76 mm
00:09 4.6 °C 3.6 °C 999.5 hPa NW 8 km/h 19.3 km/h 93% 0.76 mm
00:14 4.6 °C 3.6 °C 999.5 hPa NE 8 km/h 11.3 km/h 93% 0.76 mm
00:19 4.6 °C 3.6 °C 999.5 hPa WNW 6.4 km/h 12.9 km/h 93% 0.51 mm
00:24 4.6 °C 3.6 °C 999.9 hPa NW 6.4 km/h 14.5 km/h 93% 0.51 mm
00:29 4.6 °C 3.6 °C 999.9 hPa NW 6.4 km/h 14.5 km/h 93% 0.51 mm
00:34 4.7 °C 3.6 °C 999.5 hPa NW 6.4 km/h 14.5 km/h 93% 0.51 mm
00:39 4.6 °C 3.6 °C 999.9 hPa NNW 3.2 km/h 11.3 km/h 93% 0.51 mm
00:44 4.7 °C 3.6 °C 999.9 hPa NNW 4.8 km/h 12.9 km/h 93% 0.25 mm
00:49 4.6 °C 3.6 °C 999.9 hPa North 8 km/h 12.9 km/h 93% 0.25 mm
00:54 4.6 °C 3.5 °C 999.9 hPa NW 9.7 km/h 11.3 km/h 93% 0.25 mm
00:59 4.6 °C 3.6 °C 999.9 hPa NW 6.4 km/h 16.1 km/h 93% 0.25 mm
01:04 4.6 °C 3.6 °C 999.9 hPa NW 6.4 km/h 16.1 km/h 93% 0 mm
01:09 4.7 °C 3.6 °C 999.9 hPa WNW 4.8 km/h 16.1 km/h 93% 0.25 mm
01:14 4.7 °C 3.6 °C 999.9 hPa NW 3.2 km/h 12.9 km/h 93% 0.25 mm
01:19 4.7 °C 3.6 °C 1000.2 hPa WNW 3.2 km/h 8 km/h 93% 0.25 mm
01:24 4.7 °C 3.7 °C 999.9 hPa WNW 6.4 km/h 9.7 km/h 93% 0.25 mm
01:29 4.7 °C 3.7 °C 999.9 hPa WNW 4.8 km/h 11.3 km/h 93% 0.25 mm
01:34 4.7 °C 3.7 °C 1000.2 hPa WNW 6.4 km/h 12.9 km/h 93% 0.51 mm
01:39 4.7 °C 3.7 °C 1000.2 hPa NW 1.6 km/h 11.3 km/h 93% 0.51 mm
01:44 4.7 °C 3.7 °C 1000.2 hPa North 4.8 km/h 16.1 km/h 93% 0.51 mm
01:49 4.7 °C 3.7 °C 1000.2 hPa WNW 9.7 km/h 16.1 km/h 93% 0.51 mm
01:54 4.7 °C 3.7 °C 1000.2 hPa WNW 4.8 km/h 14.5 km/h 93% 0.51 mm
01:59 4.7 °C 3.7 °C 1000.2 hPa WNW 6.4 km/h 14.5 km/h 93% 0.51 mm
02:04 4.7 °C 3.7 °C 1000.2 hPa WNW 6.4 km/h 16.1 km/h 93% 0.76 mm
02:09 4.7 °C 3.6 °C 1000.2 hPa NW 8 km/h 16.1 km/h 92% 0.51 mm
02:14 4.8 °C 3.6 °C 1000.2 hPa NW 8 km/h 16.1 km/h 92% 0.51 mm
02:19 4.8 °C 3.6 °C 1000.2 hPa NW 6.4 km/h 16.1 km/h 92% 0.51 mm
02:24 4.8 °C 3.6 °C 1000.2 hPa NW 11.3 km/h 16.1 km/h 92% 0.51 mm
02:29 4.7 °C 3.6 °C 1000.2 hPa NW 4.8 km/h 19.3 km/h 92% 0.51 mm
02:34 4.7 °C 3.6 °C 1000.2 hPa NW 9.7 km/h 20.9 km/h 92% 0.25 mm
02:39 4.7 °C 3.6 °C 1000.6 hPa West 9.7 km/h 16.1 km/h 92% 0.25 mm
02:44 4.6 °C 3.4 °C 1000.6 hPa NNW 19.3 km/h 25.7 km/h 92% 0.25 mm
02:49 4.6 °C 3.4 °C 1000.6 hPa NNE 16.1 km/h 19.3 km/h 92% 0.25 mm
02:54 4.6 °C 3.4 °C 1000.6 hPa NNE 11.3 km/h 17.7 km/h 92% 0.25 mm
02:59 4.6 °C 3.4 °C 1000.6 hPa NW 9.7 km/h 25.7 km/h 92% 0.25 mm
03:04 4.6 °C 3.4 °C 1000.6 hPa WNW 9.7 km/h 25.7 km/h 92% 0 mm
03:09 4.6 °C 3.3 °C 1000.6 hPa WNW 8 km/h 17.7 km/h 91% 0.25 mm
03:14 4.6 °C 3.3 °C 1000.9 hPa WNW 8 km/h 16.1 km/h 91% 0.25 mm
03:19 4.7 °C 3.3 °C 1000.9 hPa WNW 6.4 km/h 14.5 km/h 91% 0.25 mm
03:24 4.6 °C 3.3 °C 1000.9 hPa WNW 6.4 km/h 14.5 km/h 91% 0.25 mm
03:29 4.6 °C 3.2 °C 1000.9 hPa WNW 6.4 km/h 19.3 km/h 91% 0.25 mm
03:34 4.6 °C 3.2 °C 1001.2 hPa WNW 8 km/h 19.3 km/h 91% 0.25 mm
03:39 4.5 °C 3.2 °C 1001.2 hPa WNW 9.7 km/h 25.7 km/h 91% 0.25 mm
03:44 4.6 °C 3.2 °C 1001.2 hPa WNW 3.2 km/h 24.1 km/h 91% 0.25 mm
03:49 4.5 °C 3.2 °C 1001.6 hPa NW 8 km/h 16.1 km/h 91% 0.25 mm
03:54 4.5 °C 3.2 °C 1001.6 hPa WNW 3.2 km/h 12.9 km/h 91% 0.25 mm
03:59 4.5 °C 3.2 °C 1001.6 hPa WNW 6.4 km/h 17.7 km/h 91% 0.25 mm
04:04 4.4 °C 3.1 °C 1001.6 hPa NW 6.4 km/h 17.7 km/h 91% 0.25 mm
04:09 4.4 °C 2.9 °C 1001.6 hPa WNW 8 km/h 14.5 km/h 90% 0 mm
04:14 4.3 °C 2.8 °C 1001.6 hPa WNW 9.7 km/h 12.9 km/h 90% 0.25 mm
04:19 4.3 °C 2.8 °C 1001.6 hPa West 4.8 km/h 12.9 km/h 90% 0.25 mm
04:24 4.3 °C 3 °C 1001.9 hPa NW 8 km/h 14.5 km/h 91% 0.25 mm
04:29 4.3 °C 2.8 °C 1001.9 hPa NW 9.7 km/h 16.1 km/h 90% 0.51 mm
04:34 4.2 °C 2.7 °C 1001.9 hPa WNW 8 km/h 20.9 km/h 90% 0.51 mm
04:39 4.2 °C 2.7 °C 1002.3 hPa WNW 9.7 km/h 20.9 km/h 90% 0.76 mm
04:44 4.2 °C 2.7 °C 1002.3 hPa NW 8 km/h 17.7 km/h 90% 0.76 mm
04:49 4.2 °C 2.8 °C 1002.3 hPa NW 4.8 km/h 14.5 km/h 91% 0.76 mm
04:54 4.2 °C 2.8 °C 1002.3 hPa WNW 6.4 km/h 17.7 km/h 91% 1.02 mm
04:59 4.1 °C 2.8 °C 1002.3 hPa NW 11.3 km/h 12.9 km/h 91% 1.02 mm
05:04 4.1 °C 2.8 °C 1002.3 hPa WNW 8 km/h 16.1 km/h 91% 1.27 mm
05:09 4.1 °C 2.8 °C 1002.3 hPa WNW 8 km/h 17.7 km/h 91% 1.27 mm
05:14 4 °C 2.7 °C 1002.3 hPa WNW 9.7 km/h 20.9 km/h 91% 1.02 mm
05:19 3.9 °C 2.6 °C 1002.6 hPa WNW 3.2 km/h 16.1 km/h 91% 1.02 mm
05:24 3.8 °C 2.5 °C 1002.6 hPa NW 9.7 km/h 14.5 km/h 91% 1.02 mm
05:29 3.8 °C 2.4 °C 1002.6 hPa NW 9.7 km/h 24.1 km/h 91% 1.02 mm
05:34 3.8 °C 2.4 °C 1002.6 hPa NW 9.7 km/h 19.3 km/h 91% 1.02 mm
05:39 3.8 °C 2.4 °C 1002.6 hPa NW 8 km/h 19.3 km/h 91% 0.76 mm
05:44 3.8 °C 2.3 °C 1002.6 hPa NW 9.7 km/h 20.9 km/h 90% 0.76 mm
05:49 3.8 °C 2.3 °C 1002.9 hPa NW 8 km/h 20.9 km/h 90% 0.76 mm
05:54 3.8 °C 2.3 °C 1002.9 hPa NW 6.4 km/h 19.3 km/h 90% 0.51 mm
05:59 3.8 °C 2.3 °C 1002.9 hPa NW 6.4 km/h 19.3 km/h 90% 0.51 mm
06:04 3.8 °C 2.3 °C 1002.9 hPa NW 6.4 km/h 16.1 km/h 90% 0.25 mm
06:09 3.9 °C 2.4 °C 1003.3 hPa NW 8 km/h 17.7 km/h 90% 0.51 mm
06:14 3.8 °C 2.3 °C 1003.3 hPa West 12.9 km/h 20.9 km/h 90% 0.51 mm
06:19 3.8 °C 2.3 °C 1003.3 hPa NNW 8 km/h 30.6 km/h 90% 0.51 mm
06:24 3.8 °C 2.3 °C 1003.3 hPa WNW 8 km/h 22.5 km/h 90% 0.51 mm
06:29 3.7 °C 2.1 °C 1003.6 hPa WNW 6.4 km/h 16.1 km/h 89% 0.25 mm
06:34 3.7 °C 2.1 °C 1003.6 hPa WNW 6.4 km/h 14.5 km/h 89% 0.25 mm
06:39 3.7 °C 2.1 °C 1003.6 hPa NW 8 km/h 19.3 km/h 89% 0.25 mm
06:44 3.8 °C 2 °C 1003.6 hPa NW 9.7 km/h 19.3 km/h 88% 0.25 mm
06:49 3.8 °C 2 °C 1003.6 hPa NW 8 km/h 17.7 km/h 88% 0.25 mm
06:54 3.8 °C 2 °C 1003.9 hPa NW 6.4 km/h 22.5 km/h 88% 0.25 mm
06:59 3.8 °C 2 °C 1003.9 hPa NW 6.4 km/h 16.1 km/h 88% 0.25 mm
07:04 3.9 °C 1.9 °C 1003.9 hPa WNW 4.8 km/h 20.9 km/h 87% 0.25 mm
07:09 3.9 °C 2 °C 1003.9 hPa NW 8 km/h 20.9 km/h 87% 0 mm
07:14 4.1 °C 1.9 °C 1004.3 hPa NNW 6.4 km/h 19.3 km/h 86% 0 mm
07:19 4.2 °C 1.9 °C 1004.3 hPa NW 6.4 km/h 16.1 km/h 85% 0 mm
07:24 4.3 °C 2 °C 1004.3 hPa NW 6.4 km/h 20.9 km/h 85% 0 mm
07:29 4.3 °C 1.9 °C 1004.3 hPa NW 6.4 km/h 17.7 km/h 84% 0 mm
07:34 4.3 °C 1.7 °C 1004.3 hPa NW 8 km/h 17.7 km/h 83% 0 mm
07:39 4.4 °C 1.8 °C 1004.3 hPa NW 8 km/h 17.7 km/h 83% 0 mm
07:44 4.4 °C 1.8 °C 1004.3 hPa WNW 8 km/h 16.1 km/h 83% 0 mm
07:49 4.4 °C 1.8 °C 1004.6 hPa WNW 6.4 km/h 16.1 km/h 83% 0 mm
07:54 4.6 °C 1.7 °C 1004.6 hPa NW 8 km/h 17.7 km/h 82% 0 mm
07:59 4.6 °C 1.6 °C 1004.6 hPa NNW 3.2 km/h 22.5 km/h 81% 0 mm
08:04 4.8 °C 1.8 °C 1004.6 hPa NNW 3.2 km/h 16.1 km/h 81% 0 mm
08:09 4.8 °C 1.7 °C 1004.6 hPa NW 6.4 km/h 16.1 km/h 80% 0 mm
08:14 4.9 °C 1.7 °C 1004.6 hPa NW 6.4 km/h 19.3 km/h 80% 0 mm
08:19 4.7 °C 1.6 °C 1004.6 hPa NW 8 km/h 22.5 km/h 80% 0 mm
08:24 4.6 °C 1.6 °C 1005 hPa NNW 4.8 km/h 22.5 km/h 81% 0 mm
08:29 4.5 °C 1.5 °C 1005 hPa NNW 12.9 km/h 16.1 km/h 81% 0 mm
08:34 4.5 °C 1.7 °C 1005 hPa NW 8 km/h 19.3 km/h 82% 0 mm
08:39 4.6 °C 1.8 °C 1005 hPa WNW 9.7 km/h 20.9 km/h 82% 0 mm
08:44 4.7 °C 1.7 °C 1005.3 hPa WNW 9.7 km/h 22.5 km/h 81% 0 mm
08:49 4.7 °C 1.7 °C 1005.3 hPa WNW 9.7 km/h 22.5 km/h 81% 0 mm
08:54 4.7 °C 1.5 °C 1005.3 hPa West 16.1 km/h 20.9 km/h 80% 0 mm
08:59 4.9 °C 1.7 °C 1005.3 hPa WNW 8 km/h 22.5 km/h 80% 0 mm
09:04 4.9 °C 1.6 °C 1005.3 hPa NNW 4.8 km/h 20.9 km/h 79% 0 mm
09:09 5.2 °C 1.8 °C 1005.3 hPa West 4.8 km/h 17.7 km/h 79% 0 mm
09:14 5.5 °C 2.2 °C 1005.3 hPa NW 8 km/h 19.3 km/h 79% 0 mm
09:19 5.4 °C 1.9 °C 1005.6 hPa WNW 8 km/h 19.3 km/h 78% 0 mm
09:24 5.3 °C 1.8 °C 1005.6 hPa WNW 8 km/h 20.9 km/h 78% 0 mm
09:29 5.2 °C 1.5 °C 1005.6 hPa WNW 8 km/h 20.9 km/h 77% 0 mm
09:34 4.9 °C 1.4 °C 1005.6 hPa WNW 9.7 km/h 17.7 km/h 78% 0 mm
09:39 4.9 °C 1.4 °C 1005.6 hPa West 17.7 km/h 19.3 km/h 78% 0 mm
09:44 4.9 °C 1.6 °C 1006 hPa WNW 11.3 km/h 19.3 km/h 79% 0 mm
09:49 4.9 °C 1.2 °C 1005.6 hPa NNW 8 km/h 24.1 km/h 77% 0 mm
09:54 5.3 °C 1.6 °C 1005.6 hPa NW 4.8 km/h 17.7 km/h 77% 0 mm
09:59 5.4 °C 1.5 °C 1006 hPa NNW 9.7 km/h 17.7 km/h 76% 0 mm
10:04 5.2 °C 1.5 °C 1006.3 hPa WNW 8 km/h 16.1 km/h 77% 0 mm
10:09 5.2 °C 1.7 °C 1006.3 hPa NNW 6.4 km/h 16.1 km/h 78% 0 mm
10:14 5.2 °C 1.7 °C 1006.3 hPa NW 4.8 km/h 17.7 km/h 78% 0 mm
10:19 5.5 °C 1.9 °C 1006.3 hPa WNW 8 km/h 17.7 km/h 78% 0 mm
10:24 5.6 °C 1.9 °C 1006.3 hPa WNW 6.4 km/h 14.5 km/h 77% 0 mm
10:29 5.8 °C 1.6 °C 1006.3 hPa WNW 8 km/h 16.1 km/h 74% 0 mm
10:34 5.8 °C 1.1 °C 1006.3 hPa WNW 16.1 km/h 20.9 km/h 72% 0 mm
10:39 5.9 °C 1.1 °C 1006.3 hPa WNW 11.3 km/h 20.9 km/h 71% 0 mm
10:44 6.1 °C 1.2 °C 1006.3 hPa WNW 11.3 km/h 16.1 km/h 71% 0 mm
10:49 6.2 °C 1.2 °C 1006.3 hPa West 3.2 km/h 14.5 km/h 70% 0 mm
10:54 6.2 °C 1.2 °C 1006.3 hPa WNW 4.8 km/h 17.7 km/h 70% 0 mm
10:59 6.3 °C 1.2 °C 1006.3 hPa WNW 4.8 km/h 16.1 km/h 70% 0 mm
11:04 6.6 °C 1.7 °C 1006.3 hPa WNW 6.4 km/h 19.3 km/h 71% 0 mm
11:09 6.7 °C 1.2 °C 1006.3 hPa West 9.7 km/h 17.7 km/h 68% 0 mm
11:14 6.8 °C 0.9 °C 1006.7 hPa WNW 9.7 km/h 24.1 km/h 66% 0 mm
11:19 6.9 °C 0.8 °C 1006.7 hPa WNW 9.7 km/h 24.1 km/h 65% 0 mm
11:24 6.9 °C 0.8 °C 1006.7 hPa WNW 9.7 km/h 20.9 km/h 65% 0 mm
11:29 6.7 °C 0.3 °C 1006.7 hPa West 9.7 km/h 20.9 km/h 64% 0 mm
11:34 6.6 °C 0.7 °C 1006.7 hPa WNW 6.4 km/h 17.7 km/h 66% 0 mm
11:39 6.6 °C 0.7 °C 1006.7 hPa West 6.4 km/h 12.9 km/h 66% 0 mm
11:44 6.6 °C 1.1 °C 1006.7 hPa WNW 6.4 km/h 16.1 km/h 68% 0 mm
11:49 6.7 °C 1.2 °C 1006.7 hPa WNW 8 km/h 17.7 km/h 68% 0 mm
11:54 6.7 °C 1.4 °C 1006.7 hPa WNW 8 km/h 17.7 km/h 69% 0 mm
11:59 6.6 °C 1.1 °C 1006.7 hPa West 11.3 km/h 17.7 km/h 68% 0 mm
12:04 6.6 °C 1.1 °C 1006.7 hPa WSW 6.4 km/h 17.7 km/h 68% 0 mm
12:09 6.7 °C 1.4 °C 1006.7 hPa WSW 9.7 km/h 17.7 km/h 69% 0 mm
12:14 6.8 °C 1.3 °C 1006.7 hPa WNW 8 km/h 19.3 km/h 68% 0 mm
12:19 6.9 °C 1.4 °C 1007 hPa WNW 9.7 km/h 19.3 km/h 68% 0 mm
12:24 6.9 °C 1.2 °C 1006.7 hPa WNW 9.7 km/h 17.7 km/h 67% 0 mm
12:29 6.9 °C 1.2 °C 1007 hPa West 9.7 km/h 19.3 km/h 67% 0 mm
12:34 6.9 °C 1.4 °C 1007 hPa WNW 4.8 km/h 16.1 km/h 68% 0 mm
12:39 6.9 °C 1.2 °C 1006.7 hPa WSW 4.8 km/h 17.7 km/h 67% 0 mm
12:44 6.9 °C 1.7 °C 1007 hPa WSW 4.8 km/h 12.9 km/h 69% 0 mm
12:49 6.9 °C 2.1 °C 1007 hPa West 6.4 km/h 12.9 km/h 71% 0 mm
12:54 6.9 °C 2 °C 1007 hPa West 6.4 km/h 12.9 km/h 71% 0 mm
12:59 6.9 °C 2.1 °C 1007 hPa West 6.4 km/h 12.9 km/h 71% 0 mm
13:04 7.2 °C 2.3 °C 1007 hPa WSW 4.8 km/h 11.3 km/h 71% 0 mm
13:09 7.6 °C 2.2 °C 1007 hPa NW 4.8 km/h 12.9 km/h 69% 0 mm
13:14 7.7 °C 2.2 °C 1007 hPa West 6.4 km/h 14.5 km/h 68% 0 mm
13:19 7.9 °C 2.1 °C 1007 hPa WNW 8 km/h 17.7 km/h 67% 0 mm
13:24 8.1 °C 2.3 °C 1007 hPa WNW 8 km/h 17.7 km/h 67% 0 mm
13:29 8.3 °C 2.3 °C 1007 hPa WNW 11.3 km/h 16.1 km/h 66% 0 mm
13:34 8.5 °C 2.5 °C 1007 hPa NW 11.3 km/h 16.1 km/h 66% 0 mm
13:39 8.7 °C 2.4 °C 1007 hPa WSW 6.4 km/h 17.7 km/h 65% 0 mm
13:44 8.6 °C 2.3 °C 1007 hPa West 12.9 km/h 17.7 km/h 65% 0 mm
13:49 8.4 °C 2.2 °C 1007 hPa West 11.3 km/h 16.1 km/h 65% 0 mm
13:54 8.5 °C 2.3 °C 1007 hPa WNW 9.7 km/h 16.1 km/h 65% 0 mm
13:59 8.3 °C 2.3 °C 1007 hPa WNW 8 km/h 16.1 km/h 66% 0 mm
14:04 8.6 °C 2.6 °C 1007 hPa WNW 8 km/h 17.7 km/h 66% 0 mm
14:09 8.7 °C 2.4 °C 1007 hPa WNW 6.4 km/h 17.7 km/h 65% 0 mm
14:14 8.6 °C 2.1 °C 1007.3 hPa WNW 8 km/h 19.3 km/h 64% 0 mm
14:19 8.5 °C 2.3 °C 1007 hPa West 9.7 km/h 14.5 km/h 65% 0 mm
14:24 8.6 °C 2.4 °C 1007.3 hPa West 4.8 km/h 12.9 km/h 65% 0 mm
14:29 8.6 °C 2.4 °C 1007.3 hPa WNW 6.4 km/h 16.1 km/h 65% 0 mm
14:34 8.7 °C 2.4 °C 1007.3 hPa NNW 8 km/h 11.3 km/h 65% 0 mm
14:39 8.8 °C 2.6 °C 1007.3 hPa West 11.3 km/h 14.5 km/h 65% 0 mm
14:44 8.9 °C 2.4 °C 1007.3 hPa West 14.5 km/h 14.5 km/h 64% 0 mm
14:49 8.7 °C 2.4 °C 1007.3 hPa WNW 4.8 km/h 14.5 km/h 65% 0 mm
14:54 8.7 °C 2.3 °C 1007.3 hPa West 8 km/h 14.5 km/h 64% 0 mm
14:59 8.9 °C 3.3 °C 1007.3 hPa West 4.8 km/h 11.3 km/h 68% 0 mm
15:04 8.9 °C 4.1 °C 1007.3 hPa WSW 6.4 km/h 14.5 km/h 72% 0 mm
15:09 8.9 °C 4.1 °C 1007.3 hPa WSW 8 km/h 17.7 km/h 72% 0 mm
15:14 8.7 °C 4.3 °C 1007.3 hPa West 8 km/h 16.1 km/h 74% 0 mm
15:19 8.5 °C 3.9 °C 1007.3 hPa SW 6.4 km/h 14.5 km/h 73% 0 mm
15:24 8.6 °C 4.1 °C 1007.3 hPa WSW 9.7 km/h 19.3 km/h 73% 0 mm
15:29 8.9 °C 4.7 °C 1007.3 hPa WSW 9.7 km/h 19.3 km/h 75% 0 mm
15:34 8.8 °C 4.4 °C 1007.3 hPa WSW 4.8 km/h 19.3 km/h 74% 0 mm
15:39 8.5 °C 4.1 °C 1007.3 hPa WSW 14.5 km/h 22.5 km/h 74% 0 mm
15:44 8.3 °C 4.1 °C 1007.3 hPa WSW 9.7 km/h 19.3 km/h 75% 0 mm
15:49 8.2 °C 4.2 °C 1007.7 hPa WSW 11.3 km/h 24.1 km/h 76% 0 mm
15:54 8.5 °C 4.5 °C 1007.7 hPa SW 9.7 km/h 24.1 km/h 76% 0 mm
15:59 8.4 °C 4.3 °C 1007.7 hPa WSW 9.7 km/h 19.3 km/h 75% 0 mm
16:04 8.7 °C 4.7 °C 1007.7 hPa WSW 8 km/h 19.3 km/h 76% 0 mm
16:09 8.7 °C 4.3 °C 1007.7 hPa WSW 6.4 km/h 16.1 km/h 74% 0 mm
16:14 8.7 °C 4.5 °C 1007.7 hPa WSW 8 km/h 19.3 km/h 75% 0 mm
16:19 8.7 °C 4.5 °C 1007.7 hPa SW 11.3 km/h 12.9 km/h 75% 0 mm
16:24 8.7 °C 4.7 °C 1007.7 hPa SW 8 km/h 16.1 km/h 76% 0 mm
16:29 8.9 °C 4.7 °C 1007.7 hPa WSW 8 km/h 16.1 km/h 75% 0 mm
16:34 9.4 °C 5 °C 1007.7 hPa WSW 4.8 km/h 12.9 km/h 74% 0 mm
16:39 9.8 °C 4.9 °C 1007.7 hPa West 4.8 km/h 11.3 km/h 72% 0 mm
16:44 9.9 °C 3.6 °C 1007.7 hPa WNW 6.4 km/h 17.7 km/h 65% 0 mm
16:49 10.3 °C 3.1 °C 1007.7 hPa WNW 8 km/h 17.7 km/h 61% 0 mm
16:54 10.4 °C 3 °C 1007.7 hPa West 8 km/h 14.5 km/h 60% 0 mm
16:59 11.2 °C 3.5 °C 1007.7 hPa NNE 4.8 km/h 19.3 km/h 59% 0 mm
17:04 10.7 °C 2.5 °C 1007.7 hPa NW 6.4 km/h 16.1 km/h 57% 0 mm
17:09 10.4 °C 3.2 °C 1008 hPa North 11.3 km/h 17.7 km/h 61% 0 mm
17:14 10.3 °C 2.6 °C 1008 hPa WNW 6.4 km/h 19.3 km/h 59% 0 mm
17:19 10.4 °C 2.5 °C 1008 hPa WNW 8 km/h 22.5 km/h 58% 0 mm
17:24 10.2 °C 2.1 °C 1008 hPa North 3.2 km/h 27.4 km/h 57% 0 mm
17:29 10.1 °C 2.2 °C 1008 hPa WNW 8 km/h 19.3 km/h 58% 0 mm
17:34 10.1 °C 2.4 °C 1008 hPa West 11.3 km/h 19.3 km/h 59% 0 mm
17:39 10.1 °C 2.2 °C 1008 hPa NNW 14.5 km/h 24.1 km/h 58% 0 mm
17:44 10.1 °C 2.2 °C 1008.4 hPa West 9.7 km/h 24.1 km/h 58% 0 mm
17:49 9.9 °C 1.8 °C 1008.4 hPa WNW 8 km/h 22.5 km/h 57% 0 mm
17:54 9.9 °C 2 °C 1008.4 hPa WNW 11.3 km/h 22.5 km/h 58% 0 mm
17:59 10.1 °C 1.9 °C 1008.4 hPa WNW 12.9 km/h 24.1 km/h 57% 0 mm
18:04 10.1 °C 2.2 °C 1008.4 hPa WNW 12.9 km/h 24.1 km/h 58% 0 mm
18:09 10.4 °C 2 °C 1008.4 hPa WNW 11.3 km/h 20.9 km/h 56% 0 mm
18:14 10 °C 1.9 °C 1008.7 hPa WNW 11.3 km/h 22.5 km/h 57% 0 mm
18:19 9.7 °C 1.3 °C 1008.7 hPa NW 9.7 km/h 22.5 km/h 56% 0 mm
18:24 9.6 °C 1.5 °C 1008.7 hPa NNW 4.8 km/h 20.9 km/h 57% 0 mm
18:29 9.5 °C 1.4 °C 1008.7 hPa NW 8 km/h 20.9 km/h 57% 0 mm
18:34 9.5 °C 1.2 °C 1008.7 hPa NNW 8 km/h 19.3 km/h 56% 0 mm
18:39 9.6 °C 1.2 °C 1008.7 hPa NW 6.4 km/h 22.5 km/h 56% 0 mm
18:44 9.6 °C 1.7 °C 1009 hPa North 8 km/h 19.3 km/h 58% 0 mm
18:49 9.7 °C 1.6 °C 1009 hPa NNW 19.3 km/h 24.1 km/h 57% 0 mm
18:54 9.6 °C 1.4 °C 1009 hPa NW 11.3 km/h 25.7 km/h 57% 0 mm
18:59 9.4 °C 1.6 °C 1009 hPa NW 11.3 km/h 29 km/h 58% 0 mm
19:04 9.3 °C 1.7 °C 1009.4 hPa NW 9.7 km/h 29 km/h 59% 0 mm
19:09 9.4 °C 1.3 °C 1009.4 hPa NW 8 km/h 19.3 km/h 57% 0 mm
19:14 9.3 °C 1.2 °C 1009.4 hPa WNW 6.4 km/h 29 km/h 57% 0 mm
19:19 9.3 °C 1.7 °C 1009.7 hPa NW 6.4 km/h 20.9 km/h 59% 0 mm
19:24 9.1 °C 1.2 °C 1009.7 hPa NW 11.3 km/h 32.2 km/h 58% 0 mm
19:29 8.8 °C 1.2 °C 1009.7 hPa NW 12.9 km/h 32.2 km/h 59% 0 mm
19:34 8.6 °C 1.2 °C 1009.7 hPa NW 11.3 km/h 25.7 km/h 60% 0 mm
19:39 8.3 °C 1.2 °C 1010 hPa NW 9.7 km/h 20.9 km/h 61% 0 mm
19:44 8.1 °C 1.1 °C 1010 hPa NW 6.4 km/h 17.7 km/h 61% 0 mm
19:49 8.1 °C 1.2 °C 1010 hPa NW 6.4 km/h 22.5 km/h 62% 0 mm
19:54 8.1 °C 1.4 °C 1010 hPa NW 8 km/h 22.5 km/h 63% 0 mm
19:59 8 °C 1.4 °C 1010 hPa West 6.4 km/h 11.3 km/h 63% 0 mm
20:04 7.9 °C 1.3 °C 1010.4 hPa NW 3.2 km/h 16.1 km/h 63% 0 mm
20:09 7.7 °C 1.3 °C 1010.4 hPa WNW 1.6 km/h 11.3 km/h 64% 0 mm
20:14 7.7 °C 1.3 °C 1010.4 hPa West 6.4 km/h 17.7 km/h 64% 0 mm
20:19 7.7 °C 1.3 °C 1010.4 hPa WNW 8 km/h 14.5 km/h 64% 0 mm
20:24 7.7 °C 1.3 °C 1010.7 hPa WNW 6.4 km/h 14.5 km/h 64% 0 mm
20:29 7.8 °C 1.4 °C 1010.7 hPa NW 8 km/h 16.1 km/h 64% 0 mm
20:34 7.8 °C 1.4 °C 1010.7 hPa NW 6.4 km/h 16.1 km/h 64% 0 mm
20:39 7.8 °C 1.4 °C 1010.7 hPa NW 4.8 km/h 17.7 km/h 64% 0 mm
20:44 7.8 °C 1.2 °C 1010.7 hPa NW 6.4 km/h 19.3 km/h 63% 0 mm
20:49 7.8 °C 1.2 °C 1011.1 hPa NW 8 km/h 19.3 km/h 63% 0 mm
20:54 7.8 °C 1.2 °C 1011.1 hPa NW 9.7 km/h 19.3 km/h 63% 0 mm
20:59 7.7 °C 1.3 °C 1011.1 hPa NNW 9.7 km/h 19.3 km/h 64% 0 mm
21:04 7.6 °C 1.4 °C 1011.1 hPa NW 12.9 km/h 17.7 km/h 65% 0 mm
21:09 7.6 °C 1.6 °C 1011.1 hPa North 9.7 km/h 12.9 km/h 66% 0 mm
21:14 7.4 °C 1.3 °C 1011.4 hPa NW 8 km/h 14.5 km/h 65% 0 mm
21:19 7.3 °C 1.2 °C 1011.4 hPa WNW 3.2 km/h 16.1 km/h 65% 0 mm
21:24 7.2 °C 1.1 °C 1011.4 hPa NW 4.8 km/h 16.1 km/h 65% 0 mm
21:29 7.1 °C 1.1 °C 1011.4 hPa NW 3.2 km/h 9.7 km/h 66% 0 mm
21:34 7.1 °C 1.2 °C 1011.4 hPa NW 4.8 km/h 11.3 km/h 66% 0 mm
21:39 7.1 °C 0.9 °C 1011.4 hPa NW 4.8 km/h 11.3 km/h 65% 0 mm
21:44 7.1 °C 1.2 °C 1011.4 hPa NW 1.6 km/h 9.7 km/h 66% 0 mm
21:49 7.1 °C 1.2 °C 1011.4 hPa NNW 1.6 km/h 9.7 km/h 66% 0 mm
21:54 7 °C 1.1 °C 1011.7 hPa NW 4.8 km/h 9.7 km/h 66% 0 mm
21:59 6.9 °C 1 °C 1011.7 hPa NW 3.2 km/h 8 km/h 66% 0 mm
22:04 6.9 °C 1 °C 1011.7 hPa NW 3.2 km/h 6.4 km/h 66% 0 mm
22:09 6.9 °C 1.2 °C 1011.7 hPa NNW 6.4 km/h 6.4 km/h 67% 0 mm
22:14 6.9 °C 1.2 °C 1011.7 hPa Calm   6.4 km/h 67% 0 mm
22:19 6.9 °C 1.2 °C 1011.7 hPa NW 4.8 km/h 9.7 km/h 67% 0 mm
22:24 6.9 °C 1.2 °C 1011.7 hPa NW 3.2 km/h 9.7 km/h 67% 0 mm
22:29 6.9 °C 0.9 °C 1011.7 hPa NNW 3.2 km/h 6.4 km/h 66% 0 mm
22:39 6.9 °C 0.9 °C 1011.7 hPa NW 3.2 km/h 4.8 km/h 66% 0 mm
22:44 6.8 °C 0.7 °C 1011.7 hPa Calm   8 km/h 65% 0 mm
22:49 6.9 °C 0.8 °C 1011.7 hPa Calm   6.4 km/h 65% 0 mm
22:54 6.8 °C 0.7 °C 1011.7 hPa Calm   4.8 km/h 65% 0 mm
22:59 6.8 °C 0.7 °C 1011.7 hPa NNW 1.6 km/h 4.8 km/h 65% 0 mm
23:04 6.7 °C 0.8 °C 1011.7 hPa Calm     66% 0 mm
23:09 6.7 °C 0.6 °C 1011.7 hPa Calm     65% 0 mm
23:14 6.7 °C 0.8 °C 1011.7 hPa Calm     66% 0 mm
23:19 6.6 °C 1.1 °C 1011.7 hPa NNW 1.6 km/h 3.2 km/h 68% 0 mm
23:24 6.5 °C 0.8 °C 1011.7 hPa NNW 1.6 km/h 3.2 km/h 67% 0 mm
23:29 6.4 °C 0.9 °C 1011.7 hPa Calm     68% 0 mm
23:34 6.4 °C 0.8 °C 1011.7 hPa NNW 3.2 km/h 4.8 km/h 67% 0 mm
23:39 6.4 °C 0.8 °C 1011.7 hPa Calm   3.2 km/h 67% 0 mm
23:44 6.4 °C -0.2 °C 1012.1 hPa NNW 1.6 km/h 9.7 km/h 63% 0 mm
23:49 6.4 °C -0.2 °C 1011.7 hPa NNW 3.2 km/h 4.8 km/h 63% 0 mm
23:54 6.3 °C -0.1 °C 1011.7 hPa Calm   1.6 km/h 64% 0 mm
23:59 6.2 °C -0.1 °C 1011.7 hPa Calm   6.4 km/h 64% 0 mm
Buffalo, New York, USA
Compliments of Weather Underground - 2.5 mb